OK,80,40,613,80,2014-10-01T01:40:00,0,28071940,201291
OK,80,40,613,80,2014-10-01T01:45:00,0,28072383,201291
OK,80,40,613,80,2014-10-01T01:50:00,0,28072832,201291
OK,80,40,613,80,2014-10-01T01:55:00,0,28073279,201291
OK,80,40,613,80,2014-10-01T02:00:00,0,28073727,201291
OK,80,40,613,80,2014-10-01T02:05:00,0,28074045,201291
OK,80,40,613,80,2014-10-01T02:10:00,0,28074494,201291
OK,80,40,613,80,2014-10-01T02:15:00,0,28074934,201291
OK,80,40,613,80,2014-10-01T02:20:00,0,28075383,201291
OK,80,40,613,80,2014-10-01T02:25:00,0,28075832,201291
OK,80,40,613,80,2014-10-01T02:30:00,0,28076215,201291
OK,80,40,613,80,2014-10-01T02:35:00,0,28076664,201291
OK,80,40,613,80,2014-10-01T02:40:00,0,28077113,201291
OK,73,44,613,73,2014-10-01T02:45:00,1,28077562,201291
OK,73,44,613,73,2014-10-01T02:50:00,0,28077965,201291
OK,73,44,613,73,2014-10-01T02:55:00,0,28078414,201291
OK,73,44,613,73,2014-10-01T03:00:00,0,28078859,201291
OK,73,44,613,73,2014-10-01T03:05:00,0,28079307,201291
OK,73,44,613,73,2014-10-01T03:10:00,0,28079750,201291
OK,73,44,613,73,2014-10-01T03:15:00,0,28080199,201291
OK,73,44,613,73,2014-10-01T03:20:00,0,28080533,201291
OK,73,44,613,73,2014-10-01T03:25:00,0,28080982,201291
OK,93,35,613,93,2014-10-01T03:30:00,2,28081431,201291
OK,93,35,613,93,2014-10-01T03:35:00,2,28081878,201291
OK,72,45,613,72,2014-10-01T03:40:00,2,28082327,201291
OK,78,41,613,78,2014-10-01T03:45:00,2,28082760,201291
OK,63,51,613,63,2014-10-01T03:50:00,1,28083192,201291
OK,92,35,613,92,2014-10-01T03:55:00,1,28083641,201291
OK,81,40,613,81,2014-10-01T04:00:00,4,28084090,201291
OK,87,37,613,87,2014-10-01T04:05:00,1,28084531,201291
OK,85,38,613,85,2014-10-01T04:10:00,3,28084956,201291
OK,102,31,613,102,2014-10-01T04:15:00,2,28085405,201291
OK,102,31,613,102,2014-10-01T04:20:00,0,28085850,201291
OK,89,36,613,89,2014-10-01T04:25:00,1,28086299,201291
OK,68,47,613,68,2014-10-01T04:30:00,3,28086741,201291
OK,63,51,613,63,2014-10-01T04:35:00,8,28087190,201291
OK,63,51,613,63,2014-10-01T04:40:00,4,28087635,201291
OK,65,50,613,65,2014-10-01T04:45:00,4,28088084,201291
OK,67,48,613,67,2014-10-01T04:50:00,8,28088508,201291
OK,89,36,613,89,2014-10-01T04:55:00,8,28088957,201291
OK,90,36,613,90,2014-10-01T05:00:00,6,28089387,201291
OK,83,39,613,83,2014-10-01T05:05:00,2,28089836,201291
OK,78,41,613,78,2014-10-01T05:10:00,7,28090285,201291
OK,82,39,613,82,2014-10-01T05:15:00,9,28090629,201291
OK,99,32,613,99,2014-10-01T05:20:00,9,28091078,201291
OK,86,37,613,86,2014-10-01T05:25:00,10,28091527,201291
OK,80,40,613,80,2014-10-01T05:30:00,10,28091944,201291
OK,94,34,613,94,2014-10-01T05:35:00,7,28092393,201291
OK,195,16,613,195,2014-10-01T05:40:00,14,28092837,201291
OK,204,15,613,204,2014-10-01T05:45:00,15,28093278,201291
OK,268,12,613,268,2014-10-01T05:50:00,13,28093709,201291
OK,280,11,613,280,2014-10-01T05:55:00,10,28094158,201291
OK,283,11,613,283,2014-10-01T06:00:00,8,28094569,201291
OK,198,16,613,198,2014-10-01T06:05:00,6,28095014,201291
OK,119,27,613,119,2014-10-01T06:10:00,2,28095461,201291
OK,135,24,613,135,2014-10-01T06:15:00,6,28095910,201291
OK,120,27,613,120,2014-10-01T06:20:00,14,28096323,201291
OK,87,37,613,87,2014-10-01T06:25:00,7,28096772,201291
OK,92,35,613,92,2014-10-01T06:30:00,4,28097206,201291
OK,84,38,613,84,2014-10-01T06:35:00,11,28097655,201291
OK,82,39,613,82,2014-10-01T06:40:00,9,28098104,201291
OK,90,36,613,90,2014-10-01T06:45:00,7,28098541,201291
OK,90,36,613,90,2014-10-01T06:50:00,11,28098985,201291
OK,72,45,613,72,2014-10-01T06:55:00,9,28099433,201291
OK,71,45,613,71,2014-10-01T07:00:00,6,28099776,201291
OK,69,47,613,69,2014-10-01T07:05:00,2,28100225,201291
OK,74,44,613,74,2014-10-01T07:10:00,5,28100532,201291
OK,74,44,613,74,2014-10-01T07:15:00,7,28100981,201291
OK,77,42,613,77,2014-10-01T07:20:00,7,28101352,201291
OK,83,39,613,83,2014-10-01T07:25:00,7,28101801,201291
OK,83,39,613,83,2014-10-01T07:30:00,9,28102237,201291
OK,83,39,613,83,2014-10-01T07:35:00,5,28102686,201291
OK,81,40,613,81,2014-10-01T07:40:00,3,28103114,201291
OK,82,39,613,82,2014-10-01T07:45:00,7,28103560,201291
OK,83,39,613,83,2014-10-01T07:50:00,6,28104005,201291
OK,70,46,613,70,2014-10-01T07:55:00,3,28104450,201291
OK,71,45,613,71,2014-10-01T08:00:00,4,28104891,201291
OK,77,42,613,77,2014-10-01T08:05:00,8,28105336,201291
OK,85,38,613,85,2014-10-01T08:10:00,5,28105776,201291
OK,90,36,613,90,2014-10-01T08:15:00,4,28106225,201291
OK,88,37,613,88,2014-10-01T08:20:00,3,28106662,201291
OK,67,48,613,67,2014-10-01T08:25:00,0,28107068,201291
OK,79,41,613,79,2014-10-01T08:30:00,3,28107500,201291
OK,90,36,613,90,2014-10-01T08:35:00,5,28107949,201291
OK,84,38,613,84,2014-10-01T08:40:00,8,28108388,201291
OK,81,40,613,81,2014-10-01T08:45:00,9,28108837,201291
OK,79,41,613,79,2014-10-01T08:50:00,5,28109265,201291
OK,63,51,613,63,2014-10-01T08:55:00,2,28109714,201291
OK,69,47,613,69,2014-10-01T09:00:00,4,28110057,201291
OK,70,46,613,70,2014-10-01T09:05:00,4,28110506,201291
OK,58,56,613,58,2014-10-01T09:10:00,2,28110929,201291
OK,79,41,613,79,2014-10-01T09:15:00,3,28111378,201291
OK,79,41,613,79,2014-10-01T09:20:00,5,28111807,201291
OK,77,42,613,77,2014-10-01T09:25:00,3,28112256,201291
OK,97,33,613,97,2014-10-01T09:30:00,1,28112597,201291
OK,87,37,613,87,2014-10-01T09:35:00,6,28113046,201291
OK,82,39,613,82,2014-10-01T09:40:00,7,28113470,201291
OK,78,41,613,78,2014-10-01T09:45:00,0,28113919,201291
OK,79,41,613,79,2014-10-01T09:50:00,1,28114351,201291
OK,78,41,613,78,2014-10-01T09:55:00,4,28114800,201291
OK,78,41,613,78,2014-10-01T10:00:00,3,28115154,201291
OK,84,38,613,84,2014-10-01T10:05:00,3,28115603,201291
OK,83,39,613,83,2014-10-01T10:10:00,6,28116015,201291
OK,86,37,613,86,2014-10-01T10:15:00,9,28116464,201291
OK,90,36,613,90,2014-10-01T10:20:00,6,28116872,201291
OK,100,32,613,100,2014-10-01T10:25:00,3,28117321,201291
OK,88,37,613,88,2014-10-01T10:30:00,0,28117746,201291
OK,85,38,613,85,2014-10-01T10:35:00,5,28118195,201291
OK,84,38,613,84,2014-10-01T10:40:00,6,28118640,201291
OK,101,32,613,101,2014-10-01T10:45:00,6,28119087,201291
OK,108,30,613,108,2014-10-01T10:50:00,7,28119531,201291
OK,100,32,613,100,2014-10-01T10:55:00,5,28119979,201291
OK,92,35,613,92,2014-10-01T11:00:00,3,28120427,201291
OK,88,37,613,88,2014-10-01T11:05:00,4,28120876,201291
OK,88,37,613,88,2014-10-01T11:10:00,4,28121259,201291
OK,87,37,613,87,2014-10-01T11:15:00,6,28121708,201291
OK,86,37,613,86,2014-10-01T11:20:00,5,28122146,201291
OK,54,60,613,54,2014-10-01T11:25:00,1,28122595,201291
OK,77,42,613,77,2014-10-01T11:30:00,2,28123036,201291
OK,100,32,613,100,2014-10-01T11:35:00,3,28123485,201291
OK,98,33,613,98,2014-10-01T11:40:00,4,28123917,201291
OK,98,33,613,98,2014-10-01T11:45:00,4,28124366,201291
OK,99,32,613,99,2014-10-01T11:50:00,1,28124768,201291
OK,73,44,613,73,2014-10-01T11:55:00,3,28125217,201291
OK,94,34,613,94,2014-10-01T12:00:00,5,28125646,201291
OK,98,33,613,98,2014-10-01T12:05:00,6,28126095,201291
OK,103,31,613,103,2014-10-01T12:10:00,3,28126447,201291
OK,63,51,613,63,2014-10-01T12:15:00,4,28126896,201291
OK,76,42,613,76,2014-10-01T12:20:00,4,28127345,201291
OK,92,35,613,92,2014-10-01T12:25:00,2,28127794,201291
OK,100,32,613,100,2014-10-01T12:30:00,8,28128222,201291
OK,97,33,613,97,2014-10-01T12:35:00,6,28128671,201291
OK,88,37,613,88,2014-10-01T12:40:00,5,28129106,201291
OK,89,36,613,89,2014-10-01T12:45:00,5,28129555,201291
OK,96,33,613,96,2014-10-01T12:50:00,7,28129989,201291
OK,66,49,613,66,2014-10-01T12:55:00,4,28130438,201291
OK,108,30,613,108,2014-10-01T13:00:00,2,28130866,201291
OK,74,44,613,74,2014-10-01T13:05:00,2,28131315,201291
OK,93,35,613,93,2014-10-01T13:10:00,4,28131752,201291
OK,114,28,613,114,2014-10-01T13:15:00,2,28132201,201291
OK,67,48,613,67,2014-10-01T13:20:00,2,28132639,201291
OK,67,48,613,67,2014-10-01T13:25:00,0,28133086,201291
OK,67,48,613,67,2014-10-01T13:30:00,0,28133524,201291
OK,73,44,613,73,2014-10-01T13:35:00,2,28133973,201291
OK,89,36,613,89,2014-10-01T13:40:00,1,28134412,201291
OK,143,22,613,143,2014-10-01T13:45:00,2,28134861,201291
OK,108,30,613,108,2014-10-01T13:50:00,2,28135280,201291
OK,82,39,613,82,2014-10-01T13:55:00,4,28135729,201291
OK,84,38,613,84,2014-10-01T14:00:00,2,28136166,201291
OK,105,31,613,105,2014-10-01T14:05:00,1,28136615,201291
OK,82,39,613,82,2014-10-01T14:10:00,4,28137055,201291
OK,97,33,613,97,2014-10-01T14:15:00,1,28137504,201291
OK,102,31,613,102,2014-10-01T14:20:00,1,28137938,201291
OK,75,43,613,75,2014-10-01T14:25:00,4,28138387,201291
OK,85,38,613,85,2014-10-01T14:30:00,7,28138815,201291
OK,88,37,613,88,2014-10-01T14:35:00,5,28139264,201291
OK,98,33,613,98,2014-10-01T14:40:00,8,28139675,201291
OK,97,33,613,97,2014-10-01T14:45:00,5,28140124,201291
OK,97,33,613,97,2014-10-01T14:50:00,3,28140566,201291
OK,97,33,613,97,2014-10-01T14:55:00,1,28141015,201291
OK,88,37,613,88,2014-10-01T15:00:00,1,28141441,201291
OK,88,37,613,88,2014-10-01T15:05:00,3,28141890,201291
OK,105,31,613,105,2014-10-01T15:10:00,4,28142318,201291
OK,97,33,613,97,2014-10-01T15:15:00,5,28142767,201291
OK,97,33,613,97,2014-10-01T15:20:00,12,28143194,201291
OK,114,28,613,114,2014-10-01T15:25:00,4,28143643,201291
OK,85,38,613,85,2014-10-01T15:30:00,6,28144091,201291
OK,83,39,613,83,2014-10-01T15:35:00,6,28144540,201291
OK,82,39,613,82,2014-10-01T15:40:00,1,28144961,201291
OK,81,40,613,81,2014-10-01T15:45:00,2,28145375,201291
OK,81,40,613,81,2014-10-01T15:50:00,4,28145824,201291
OK,83,39,613,83,2014-10-01T15:55:00,8,28146273,201291
OK,91,35,613,91,2014-10-01T16:00:00,5,28146722,201291
OK,90,36,613,90,2014-10-01T16:05:00,5,28147130,201291
OK,90,36,613,90,2014-10-01T16:10:00,3,28147574,201291
OK,83,39,613,83,2014-10-01T16:15:00,4,28148023,201291
OK,78,41,613,78,2014-10-01T16:20:00,6,28148424,201291
OK,86,37,613,86,2014-10-01T16:25:00,5,28148873,201291
OK,93,35,613,93,2014-10-01T16:30:00,2,28149312,201291
OK,104,31,613,104,2014-10-01T16:35:00,1,28149761,201291
OK,70,46,613,70,2014-10-01T16:40:00,2,28150187,201291
OK,73,44,613,73,2014-10-01T16:45:00,1,28150636,201291
OK,101,32,613,101,2014-10-01T16:50:00,2,28151054,201291
OK,92,35,613,92,2014-10-01T16:55:00,4,28151503,201291
OK,110,29,613,110,2014-10-01T17:05:00,0,28151952,201291
OK,90,36,613,90,2014-10-01T17:10:00,1,28152401,201291
OK,69,47,613,69,2014-10-01T17:15:00,2,28152847,201291
OK,70,46,613,70,2014-10-01T17:20:00,3,28153294,201291
OK,70,46,613,70,2014-10-01T17:25:00,3,28153743,201291
OK,109,29,613,109,2014-10-01T17:30:00,3,28154153,201291
OK,104,31,613,104,2014-10-01T17:35:00,3,28154602,201291
OK,104,31,613,104,2014-10-01T17:40:00,3,28155044,201291
OK,86,37,613,86,2014-10-01T17:45:00,2,28155492,201291
OK,92,35,613,92,2014-10-01T17:50:00,4,28155910,201291
OK,84,38,613,84,2014-10-01T17:55:00,1,28156359,201291
OK,122,26,613,122,2014-10-01T18:00:00,2,28156807,201291
OK,134,24,613,134,2014-10-01T18:05:00,0,28157246,201291
OK,73,44,613,73,2014-10-01T18:10:00,4,28157676,201291
OK,73,44,613,73,2014-10-01T18:15:00,5,28158124,201291
OK,73,44,613,73,2014-10-01T18:20:00,2,28158568,201291
OK,80,40,613,80,2014-10-01T18:25:00,0,28159014,201291
OK,80,40,613,80,2014-10-01T18:30:00,0,28159460,201291
OK,70,46,613,70,2014-10-01T18:35:00,1,28159795,201291
OK,82,39,613,82,2014-10-01T18:40:00,2,28160244,201291
OK,75,43,613,75,2014-10-01T18:45:00,1,28160693,201291
OK,75,43,613,75,2014-10-01T18:50:00,0,28161131,201291
OK,74,44,613,74,2014-10-01T18:55:00,1,28161580,201291
OK,76,42,613,76,2014-10-01T19:00:00,1,28161997,201291
OK,76,42,613,76,2014-10-01T19:05:00,0,28162446,201291
OK,99,32,613,99,2014-10-01T19:10:00,1,28162840,201291
OK,80,40,613,80,2014-10-01T19:15:00,2,28163279,201291
OK,61,53,613,61,2014-10-01T19:20:00,1,28163727,201291
OK,84,38,613,84,2014-10-01T19:25:00,1,28164176,201291
OK,92,35,613,92,2014-10-01T19:30:00,1,28164607,201291
OK,89,36,613,89,2014-10-01T19:35:00,3,28165056,201291
OK,95,34,613,95,2014-10-01T19:40:00,2,28165481,201291
OK,101,32,613,101,2014-10-01T19:45:00,2,28165929,201291
OK,56,58,613,56,2014-10-01T19:50:00,1,28166370,201291
OK,56,58,613,56,2014-10-01T19:55:00,0,28166732,201291
OK,85,38,613,85,2014-10-01T20:00:00,1,28167181,201291
OK,85,38,613,85,2014-10-01T20:05:00,1,28167610,201291
OK,85,38,613,85,2014-10-01T20:10:00,0,28168043,201291
OK,75,43,613,75,2014-10-01T20:15:00,1,28168492,201291
OK,75,43,613,75,2014-10-01T20:20:00,1,28168937,201291
OK,75,43,613,75,2014-10-01T20:25:00,0,28169386,201291
OK,77,42,613,77,2014-10-01T20:30:00,1,28169834,201291
OK,66,49,613,66,2014-10-01T20:35:00,2,28170260,201291
OK,66,49,613,66,2014-10-01T20:40:00,2,28170705,201291
OK,70,46,613,70,2014-10-01T20:45:00,1,28171153,201291
OK,70,46,613,70,2014-10-01T20:50:00,1,28171590,201291
OK,77,42,613,77,2014-10-01T20:55:00,0,28172036,201291
OK,77,42,613,77,2014-10-01T21:00:00,0,28172484,201291
OK,57,57,613,57,2014-10-01T21:05:00,3,28172930,201291
OK,56,58,613,56,2014-10-01T21:10:00,2,28173376,201291
OK,56,58,613,56,2014-10-01T21:15:00,0,28173825,201291
OK,56,58,613,56,2014-10-01T21:20:00,0,28174266,201291
OK,56,58,613,56,2014-10-01T21:25:00,0,28174715,201291
OK,56,58,613,56,2014-10-01T21:30:00,0,28175141,201291
OK,69,47,613,69,2014-10-01T21:35:00,1,28175537,201291
OK,69,47,613,69,2014-10-01T21:40:00,0,28175986,201291
OK,69,47,613,69,2014-10-01T21:45:00,0,28176435,201291
OK,69,47,613,69,2014-10-01T21:50:00,0,28176884,201291
OK,69,47,613,69,2014-10-01T21:55:00,0,28177240,201291
OK,69,47,613,69,2014-10-01T22:00:00,0,28177680,201291
OK,69,47,613,69,2014-10-01T22:05:00,0,28178126,201291
OK,69,47,613,69,2014-10-01T22:10:00,0,28178575,201291
OK,69,47,613,69,2014-10-01T22:15:00,0,28179022,201291
OK,69,47,613,69,2014-10-01T22:20:00,0,28179456,201291
OK,69,47,613,69,2014-10-01T22:25:00,0,28179899,201291
OK,69,47,613,69,2014-10-01T22:30:00,0,28180346,201291
OK,69,47,613,69,2014-10-01T22:35:00,0,28180744,201291
OK,69,47,613,69,2014-10-01T22:40:00,0,28181193,201291
OK,69,47,613,69,2014-10-01T22:45:00,0,28181617,201291
OK,69,47,613,69,2014-10-01T22:50:00,0,28182065,201291
OK,69,47,613,69,2014-10-01T22:55:00,0,28182512,201291
OK,69,47,613,69,2014-10-01T23:00:00,0,28182961,201291
OK,69,47,613,69,2014-10-01T23:05:00,0,28183378,201291
OK,69,47,613,69,2014-10-01T23:10:00,0,28183811,201291
OK,69,47,613,69,2014-10-01T23:15:00,0,28184256,201291
OK,229,14,613,229,2014-10-01T23:20:00,1,28184705,201291
OK,69,47,613,69,2014-10-01T23:25:00,0,28185140,201291
OK,69,47,613,69,2014-10-01T23:30:00,0,28185588,201291
OK,69,47,613,69,2014-10-01T23:35:00,0,28186019,201291
OK,69,47,613,69,2014-10-01T23:40:00,0,28186411,201291
OK,69,47,613,69,2014-10-01T23:45:00,0,28186860,201291
OK,69,47,613,69,2014-10-01T23:50:00,0,28187258,201291
OK,69,47,613,69,2014-10-01T23:55:00,0,28187700,201291
OK,69,47,613,69,2014-10-02T00:00:00,0,28188149,201291
OK,69,47,613,69,2014-10-02T00:05:00,0,28188590,201291
OK,69,47,613,69,2014-10-02T00:10:00,0,28189026,201291
OK,69,47,613,69,2014-10-02T00:15:00,0,28189475,201291
OK,69,47,613,69,2014-10-02T00:20:00,0,28189897,201291
OK,69,47,613,69,2014-10-02T00:25:00,0,28190346,201291
OK,69,47,613,69,2014-10-02T00:30:00,0,28190699,201291
OK,69,47,613,69,2014-10-02T00:35:00,0,28191148,201291
OK,69,47,613,69,2014-10-02T00:40:00,0,28191597,201291
OK,69,47,613,69,2014-10-02T00:45:00,0,28191903,201291
OK,69,47,613,69,2014-10-02T00:50:00,0,28192352,201291
OK,69,47,613,69,2014-10-02T00:55:00,0,28192785,201291
OK,69,47,613,69,2014-10-02T01:05:00,0,28193596,201291
OK,69,47,613,69,2014-10-02T01:10:00,0,28194045,201291
OK,69,47,613,69,2014-10-02T01:15:00,0,28194494,201291
OK,69,47,613,69,2014-10-02T01:20:00,0,28194943,201291
OK,69,47,613,69,2014-10-02T01:25:00,0,28195179,201291
OK,69,47,613,69,2014-10-02T01:30:00,0,28195628,201291
OK,69,47,613,69,2014-10-02T01:35:00,0,28196077,201291
OK,69,47,613,69,2014-10-02T01:40:00,0,28196361,201291
OK,69,47,613,69,2014-10-02T01:45:00,0,28196810,201291
OK,69,47,613,69,2014-10-02T01:50:00,0,28197233,201291
OK,69,47,613,69,2014-10-02T01:55:00,0,28197682,201291
OK,69,47,613,69,2014-10-02T02:00:00,0,28198130,201291
OK,69,47,613,69,2014-10-02T02:05:00,0,28198578,201291
OK,69,47,613,69,2014-10-02T02:10:00,0,28199027,201291
OK,69,47,613,69,2014-10-02T02:15:00,0,28199399,201291
OK,69,47,613,69,2014-10-02T02:20:00,0,28199841,201291
OK,69,47,613,69,2014-10-02T02:25:00,0,28200283,201291
OK,69,47,613,69,2014-10-02T02:30:00,0,28200726,201291
OK,69,47,613,69,2014-10-02T02:35:00,0,28201175,201291
OK,69,47,613,69,2014-10-02T02:45:00,0,28201606,201291
OK,69,47,613,69,2014-10-02T02:50:00,0,28202055,201291
OK,69,47,613,69,2014-10-02T02:55:00,0,28202504,201291
OK,69,47,613,69,2014-10-02T03:00:00,0,28202946,201291
OK,69,47,613,69,2014-10-02T03:05:00,0,28203394,201291
OK,69,47,613,69,2014-10-02T03:15:00,0,28203829,201291
OK,87,37,613,87,2014-10-02T03:30:00,0,28204278,201291
OK,67,48,613,67,2014-10-02T03:35:00,0,28204727,201291
OK,67,48,613,67,2014-10-02T03:40:00,0,28205176,201291
OK,77,42,613,77,2014-10-02T03:45:00,1,28205604,201291
OK,77,42,613,77,2014-10-02T03:55:00,0,28206434,201291
OK,53,61,613,53,2014-10-02T04:00:00,1,28206883,201291
OK,53,61,613,53,2014-10-02T04:05:00,0,28207332,201291
OK,53,61,613,53,2014-10-02T04:10:00,0,28207751,201291
OK,53,61,613,53,2014-10-02T04:15:00,0,28208200,201291
OK,53,61,613,53,2014-10-02T04:20:00,0,28208627,201291
OK,53,61,613,53,2014-10-02T04:25:00,0,28209076,201291
OK,79,41,613,79,2014-10-02T04:30:00,6,28209514,201291
OK,82,39,613,82,2014-10-02T04:35:00,2,28209963,201291
OK,75,43,613,75,2014-10-02T04:40:00,6,28210386,201291
OK,71,45,613,71,2014-10-02T04:45:00,0,28210835,201291
OK,71,45,613,71,2014-10-02T04:50:00,0,28211260,201291
OK,80,40,613,80,2014-10-02T04:55:00,9,28211704,201291
OK,81,40,613,81,2014-10-02T05:00:00,1,28212082,201291
OK,81,40,613,81,2014-10-02T05:05:00,5,28212531,201291
OK,78,41,613,78,2014-10-02T05:10:00,0,28212960,201291
OK,76,42,613,76,2014-10-02T05:15:00,4,28213409,201291
OK,74,44,613,74,2014-10-02T05:20:00,1,28213847,201291
OK,100,32,613,100,2014-10-02T05:25:00,11,28214296,201291
OK,152,21,613,152,2014-10-02T05:30:00,3,28214709,201291
OK,119,27,613,119,2014-10-02T05:35:00,0,28215158,201291
OK,198,16,613,198,2014-10-02T05:40:00,11,28215574,201291
OK,287,11,613,287,2014-10-02T05:45:00,3,28216023,201291
OK,287,11,613,287,2014-10-02T05:50:00,0,28216362,201291
OK,266,12,613,266,2014-10-02T05:55:00,9,28216802,201291
OK,203,16,613,203,2014-10-02T06:00:00,11,28217249,201291
OK,202,16,613,202,2014-10-02T06:05:00,8,28217698,201291
OK,249,13,613,249,2014-10-02T06:10:00,1,28218137,201291
OK,287,11,613,287,2014-10-02T06:15:00,8,28218586,201291
OK,277,11,613,277,2014-10-02T06:20:00,9,28219006,201291
OK,198,16,613,198,2014-10-02T06:25:00,12,28219455,201291
OK,194,16,613,194,2014-10-02T06:30:00,12,28219828,201291
OK,147,22,613,147,2014-10-02T06:35:00,7,28220277,201291
OK,111,29,613,111,2014-10-02T06:40:00,6,28220711,201291
OK,87,37,613,87,2014-10-02T06:45:00,6,28221160,201291
OK,83,39,613,83,2014-10-02T07:00:00,7,28221827,201291
OK,73,44,613,73,2014-10-02T07:05:00,5,28221973,201291
OK,80,40,613,80,2014-10-02T07:10:00,2,28222421,201291
OK,75,43,613,75,2014-10-02T07:15:00,1,28222870,201291
OK,75,43,613,75,2014-10-02T07:20:00,0,28223301,201291
OK,83,39,613,83,2014-10-02T07:25:00,1,28223736,201291
OK,83,39,613,83,2014-10-02T07:30:00,1,28224184,201291
OK,85,38,613,85,2014-10-02T07:35:00,3,28224539,201291
OK,66,49,613,66,2014-10-02T07:40:00,1,28224988,201291
OK,90,36,613,90,2014-10-02T07:50:00,8,28225759,201291
OK,82,39,613,82,2014-10-02T07:55:00,5,28226208,201291
OK,80,40,613,80,2014-10-02T08:00:00,2,28226649,201291
OK,91,35,613,91,2014-10-02T08:05:00,9,28227098,201291
OK,100,32,613,100,2014-10-02T08:10:00,3,28227513,201291
OK,76,42,613,76,2014-10-02T08:15:00,4,28227962,201291
OK,88,37,613,88,2014-10-02T08:20:00,2,28228321,201291
OK,83,39,613,83,2014-10-02T08:25:00,4,28228770,201291
OK,92,35,613,92,2014-10-02T08:30:00,1,28229180,201291
OK,73,44,613,73,2014-10-02T08:35:00,7,28229629,201291
OK,72,45,613,72,2014-10-02T08:40:00,3,28229979,201291
OK,70,46,613,70,2014-10-02T08:45:00,0,28230428,201291
OK,86,37,613,86,2014-10-02T08:50:00,4,28230794,201291
OK,78,41,613,78,2014-10-02T08:55:00,0,28231242,201291
OK,76,42,613,76,2014-10-02T09:00:00,2,28231666,201291
OK,83,39,613,83,2014-10-02T09:05:00,0,28232115,201291
OK,76,42,613,76,2014-10-02T09:15:00,2,28232457,201291
OK,87,37,613,87,2014-10-02T09:20:00,0,28232906,201291
OK,82,39,613,82,2014-10-02T09:25:00,13,28233355,201291
OK,100,32,613,100,2014-10-02T09:30:00,5,28233779,201291
OK,80,40,613,80,2014-10-02T09:35:00,4,28234228,201291
OK,75,43,613,75,2014-10-02T09:40:00,0,28234561,201291
OK,88,37,613,88,2014-10-02T09:45:00,2,28235010,201291
OK,100,32,613,100,2014-10-02T09:50:00,1,28235437,201291
OK,71,45,613,71,2014-10-02T09:55:00,5,28235886,201291
OK,72,45,613,72,2014-10-02T10:00:00,2,28236329,201291
OK,81,40,613,81,2014-10-02T10:05:00,0,28236776,201291
OK,62,52,613,62,2014-10-02T10:10:00,1,28237179,201291
OK,100,32,613,100,2014-10-02T10:15:00,3,28237626,201291
OK,100,32,613,100,2014-10-02T10:20:00,3,28238075,201291
OK,107,30,613,107,2014-10-02T10:25:00,1,28238522,201291
OK,107,30,613,107,2014-10-02T10:30:00,0,28238963,201291
OK,96,33,613,96,2014-10-02T10:35:00,4,28239412,201291
OK,97,33,613,97,2014-10-02T10:40:00,5,28239842,201291
OK,93,35,613,93,2014-10-02T10:45:00,8,28240291,201291
OK,89,36,613,89,2014-10-02T10:50:00,4,28240735,201291
OK,93,35,613,93,2014-10-02T10:55:00,6,28241184,201291
OK,59,55,613,59,2014-10-02T11:00:00,1,28241616,201291
OK,59,55,613,59,2014-10-02T11:05:00,0,28242064,201291
OK,89,36,613,89,2014-10-02T11:10:00,4,28242460,201291
OK,95,34,613,95,2014-10-02T11:15:00,3,28242909,201291
OK,84,38,613,84,2014-10-02T11:20:00,6,28243358,201291
OK,84,38,613,84,2014-10-02T11:25:00,1,28243683,201291
OK,84,38,613,84,2014-10-02T11:30:00,0,28244121,201291
OK,97,33,613,97,2014-10-02T11:35:00,8,28244550,201291
OK,88,37,613,88,2014-10-02T11:40:00,3,28244999,201291
OK,93,35,613,93,2014-10-02T11:45:00,0,28245448,201291
OK,92,35,613,92,2014-10-02T11:50:00,5,28245854,201291
OK,100,32,613,100,2014-10-02T11:55:00,5,28246303,201291
OK,88,37,613,88,2014-10-02T12:00:00,7,28246740,201291
OK,86,37,613,86,2014-10-02T12:05:00,2,28247189,201291
OK,88,37,613,88,2014-10-02T12:10:00,0,28247635,201291
OK,64,50,613,64,2014-10-02T12:15:00,1,28248065,201291
OK,64,50,613,64,2014-10-02T12:20:00,1,28248514,201291
OK,102,31,613,102,2014-10-02T12:25:00,1,28248961,201291
OK,102,31,613,102,2014-10-02T12:30:00,1,28249389,201291
OK,93,35,613,93,2014-10-02T12:35:00,4,28249833,201291
OK,80,40,613,80,2014-10-02T12:45:00,9,28250650,201291
OK,80,40,613,80,2014-10-02T12:50:00,7,28251430,201291
OK,88,37,613,88,2014-10-02T13:00:00,9,28251470,201291
OK,63,51,613,63,2014-10-02T13:20:00,1,28251510,201291
OK,63,51,613,63,2014-10-02T13:30:00,0,28251975,201291
OK,63,51,613,63,2014-10-02T13:35:00,0,28252112,201291
OK,63,51,613,63,2014-10-02T13:40:00,0,28252559,201291
OK,100,32,613,100,2014-10-02T13:45:00,4,28253001,201291
OK,99,32,613,99,2014-10-02T13:50:00,6,28253418,201291
OK,103,31,613,103,2014-10-02T13:55:00,10,28253867,201291
OK,96,33,613,96,2014-10-02T14:10:00,2,28254598,201291
OK,88,37,613,88,2014-10-02T14:15:00,1,28254721,201291
OK,88,37,613,88,2014-10-02T14:20:00,3,28255170,201291
OK,72,45,613,72,2014-10-02T14:25:00,1,28255619,201291
OK,86,37,613,86,2014-10-02T14:30:00,1,28256047,201291
OK,86,37,613,86,2014-10-02T14:35:00,0,28256496,201291
OK,72,45,613,72,2014-10-02T14:40:00,3,28256924,201291
OK,84,38,613,84,2014-10-02T14:45:00,5,28257373,201291
OK,98,33,613,98,2014-10-02T14:50:00,8,28257814,201291
OK,95,34,613,95,2014-10-02T14:55:00,7,28258262,201291
OK,96,33,613,96,2014-10-02T15:00:00,6,28258695,201291
OK,71,45,613,71,2014-10-02T15:05:00,3,28259141,201291
OK,76,42,613,76,2014-10-02T15:10:00,4,28259590,201291
OK,83,39,613,83,2014-10-02T15:15:00,3,28260037,201291